Flag for South Africa Weather past 2 weeks in Pretoria, South Africa

Now
57 °F

Cool.


Feels Like: 56 °F
Forecast: 51 / 79 °F
Wind: 6 mph from Northeast

Location: Waterkloof Lmb

Current Time: Sep 22, 2014 at 4:42:19 AM

Latest Report: Sep 22, 2014 at 4:00 AM


Visibility: N/A

Pressure: 30.36 "Hg

Humidity: 88%

Dew point: 54 °F

Location of PretoriaLocation

Historic Weather in Pretoria — Graph

°F

Pretoria temperature yesterday

Maximum temperature yesterday: 75 °F (at 3:00 PM)
Minimum temperature yesterday: 54 °F (at 1:00 AM)
Average temperature yesterday: 62 °F

Past Weeks' High & Low Weather Summary

 TemperatureHumidityPressure
High90 °F (Sep 8, 4:00 PM)88% (Sep 20, 6:00 AM)30.45 "Hg (Sep 20, 6:00 AM)
Low46 °F (Sep 7, 6:00 AM)6% (Sep 8, 3:00 PM)30.01 "Hg (Sep 18, 3:00 PM)
Average71 °F33%30.27 "Hg
* Reported Sep 7 3:00 AM — Sep 22 3:00 AM, Pretoria, Weather by CustomWeather, © 2014

Note: Actual official high and low records may vary slightly from our data, if they occured in-between our weather recording intervals... More about our weather records

Advertising

Pretoria weather history for previous 24 hours

 ConditionsComfort  
Time TempWeatherWind HumidityBarometerVisibility
3:00 AM
Sep 22
59 °FCool.6 mph77%30.36 "HgN/A
2:00 AM61 °FCool.7 mph72%30.36 "HgN/A
1:00 AM61 °FCool.7 mph68%30.36 "HgN/A
12:00 AM63 °FMild.5 mph59%30.36 "HgN/A
11:00 PM
Sep 21
59 °FCool.5 mph68%30.36 "HgN/A
10:00 PM61 °FCool.1 mph63%30.33 "HgN/A
9:00 PM63 °FMild.No wind59%30.36 "HgN/A
8:00 PM66 °FMild.1 mph49%30.33 "HgN/A
7:00 PM70 °FMild.2 mph43%30.30 "HgN/A
6:00 PM72 °FMild.3 mph41%30.30 "HgN/A
5:00 PM73 °FMild.5 mph38%30.27 "HgN/A
4:00 PM75 °FMild.3 mph39%30.30 "HgN/A
3:00 PM75 °FMild.5 mph41%30.30 "HgN/A
2:00 PM72 °FMild.6 mph47%30.33 "HgN/A
1:00 PM70 °FMild.2 mph50%30.33 "HgN/A
12:00 PM66 °FMild.3 mph60%30.39 "HgN/A
11:00 AM63 °FMild.5 mph68%30.42 "HgN/A
10:00 AM57 °FCool.6 mph77%30.42 "HgN/A
9:00 AM55 °FCool.7 mph82%30.42 "HgN/A
8:00 AM54 °FCool.8 mph88%30.42 "HgN/A
7:00 AM54 °FCool.7 mph88%30.39 "HgN/A
6:00 AM54 °FCool.8 mph88%30.39 "HgN/A
5:00 AM54 °FCool.9 mph88%30.36 "HgN/A
4:00 AM54 °FCool.9 mph88%30.36 "HgN/A
Weather by CustomWeather, © 2014

See weather overviewHow to use our weather pages